{"data":{"norad_id":66219,"epoch":"2026-09-20T21:16:08.229504Z","epoch_age_seconds":63339,"freshness":"FRESH","line1":"1 66219U 25244P   26263.88620636  .00019285  00000+0  58024-3 0  9995","line2":"2 66219  53.1580  39.7934 0000893  87.4333 272.6771 15.34409785 51599","mean_motion":15.34409785,"eccentricity":8.93e-5,"inclination_deg":53.158,"raan_deg":39.7934,"arg_perigee_deg":87.4333,"mean_anomaly_deg":272.6771,"bstar":0.00058024,"rev_number":5159,"period_min":93.847159609973,"perigee_km":462.06327284322,"apogee_km":463.28504171591,"semimajor_km":6840.8111572796,"source":"CELESTRAK","updated_at":"2026-09-21T09:00:35.842258Z"}}